Location: ????? ???????
(25.7275°N, 32.5929°E)
Time: 10:26:33
(UTC+00:00)

Cosmos 2219 Rocket - Pass Details

Date: 02 March 2021
Orbit: 826 x 848 km, 71.0° (Epoch: 15 April)

Event Time Altitude Azimuth Distance (km) Brightness Sun altitude
Rises 16:10:37 0° 153° (SSE) 3,349 5.1 -5.0°
Reaches altitude 10° 16:14:23 10° 127° (SE) 2,420 4.2 -5.9°
Maximum altitude 16:16:56 13° 99° (E) 2,192 3.7 -6.4°
Drops below altitude 10° 16:19:29 10° 72° (ENE) 2,427 4.0 -7.0°
Enters shadow 16:21:58 - 53° (NE) 3,000 4.6 -7.6°
